Showing default

COSMOS 2564 (GLONASS), 54377

Orbit data source: Space-Track

COSMOS 2564 (GLONASS), 54377 is a Commonwealth of Independent States-origin payload satellite in MEO that was launched on Mon, 28 Nov 2022 UTC via a SOYUZ-2-1B launch vehicle from the Plesetsk Missile And Space Complex (PKMTR). Payload-class satellites include a variety of spacecraft equipped with specific instruments for various scientific and technological missions. These include communications satellites like Starlink; space stations such as the ISS; scientific satellites like the Hubble; Earth observation satellites from companies like Planet Labs, Umbra, and HawkEye 360; GPS; miniature CubeSats for education and research; and military/defense satellites.

Loading next visibility...
Identifier
54377, 2022-161A
Orbit
MEO
Country
Flag of CISCIS
Related business
Manufacturer
Resehetnev ISS
Mission
Operational Defense Navigation
Bus & Motor
URAGAN, Unknown motor
Mass
1,450 kg wet, ~1,200 kg dry
Launch date (UTC)
2022-11-28 (4 years ago)
Launch vehicle
SOYUZ-2-1B
Launch site
Plesetsk Missile And Space Complex (PKMTR)
Object type
Payload
Rocket body
Debris
Shape & HBR
Cyl + 1 Ant + 2 Pan, 3.9 m
Radar Cross Section
8.467 m², Large (>1 m²)

Expand to show TLE details & history
Last TLE update: 3 days ago

TLE from 3 days ago
0 COSMOS 2564 (GLONASS)
1 54377U 22161A   26171.05664634  .00000061  00000-0  00000-0 0  9996
2 54377  64.7420 192.6165 0012215 224.8634 135.0824  2.13102033 27693
Epoch: 2026-06-20T01:21Z
TLE epoch observation values (Epoch: 2026-06-20T01:21:34.243Z)
Latitude
-0.00005°
Longitude
-96.05009°
Altitude
19,152.521 km
Speed
3.95 km/s
True Right ascension
12h 50m 28s
True Declination
0° 00' 00"
Sunlit
Object was in daylight at epoch
Visualization orbit readout
Latitude
Unknown
Longitude
Unknown
Altitude
Unknown
Speed
Unknown
Apparent Right ascension
Unknown
Apparent Declination
Unknown
Sunlit
N/A
Visualization observer readout
Local Sidereal Time
00:54:26
Azimuth
Unknown
Elevation
Unknown
Doppler factor
Unknown
Orbital elements
Apogee altitude
19,160.666 km
Perigee altitude
19,098.351 km
Semi-major axis
25,507.646 km
Eccentricity
0.00122
Inclination
64.742°
RAAN
192.6165°
Arg. of periapsis
224.8634°
True anomaly
135.18113°
Mean anomaly
135.0824°
Eccentric anomaly
135.13177°
Mean motion
0.53277 °/min
Orbital period
675.72 mins
BSTAR
0
Loading maneuver chart data...
Computing Atmospheric mass density...
Loading historical data...
Loading historical data...
Loading historical data...
Loading historical data...
Loading historical data...
Loading historical data...
Loading historical data...
Other satellites on launch #161 in the year 2022 (2022-11-28 UTC)

Documentation

Showing up to 5 results
|